Location: Unspecified
(0.0000°N, 0.0000°E)
Time: 03:58:44
(UTC+01:00)

Cosmos 1295 Rocket - Visible Passes

Search period start: 20 December 2014 00:00
Search period end: 30 December 2014 00:00
Orbit: 944 x 994 km, 82.9° (Epoch: 19 December)

Date Brightness Start Highest point End Pass type
(mag) Time Alt. Az. Time Alt. Az. Time Alt. Az.
20 Dec 7.0 04:16:10 10° NE 04:19:39 15° E 04:23:09 10° ESE visible
20 Dec 4.9 05:58:42 10° NNW 06:04:34 42° W 06:10:29 10° SSW visible
21 Dec 6.0 04:37:48 11° NNE 04:43:05 33° E 04:48:39 10° SSE visible
21 Dec 5.8 06:23:38 10° NW 06:28:01 20° W 06:32:26 10° SW visible
22 Dec 4.7 05:02:16 22° N 05:06:31 69° E 05:12:49 10° S visible
23 Dec 4.5 05:26:41 28° NNW 05:29:57 59° W 05:36:10 10° S visible
24 Dec 6.4 04:06:27 20° ENE 04:08:29 24° E 04:13:21 10° SE visible
24 Dec 5.4 05:51:03 22° WNW 05:53:24 28° W 05:58:41 10° SSW visible
25 Dec 5.2 04:30:45 44° NE 04:31:55 49° E 04:37:59 10° SSE visible
25 Dec 6.1 06:15:20 12° WNW 06:16:51 13° W 06:19:26 10° WSW visible
26 Dec 4.3 04:54:59 78° NW 04:55:21 81° W 05:01:42 10° S visible
27 Dec 6.8 03:34:36 16° E 03:34:36 16° E 03:37:39 10° SE visible
27 Dec 5.0 05:19:11 39° WSW 05:19:11 39° WSW 05:24:38 10° SSW visible
28 Dec 6.0 03:58:44 31° ESE 03:58:44 31° ESE 04:02:58 10° SSE visible
28 Dec 5.9 05:43:19 18° WSW 05:43:19 18° WSW 05:46:27 10° SW visible
29 Dec 5.4 04:22:50 44° SSE 04:22:50 44° SSE 04:27:03 10° S visible
